Whiteville, NC

4:27 AM EDT on June 26, 2017 (GMT -0400)
Columbus County Municipal

Weather History for KCPC - December, 2013

Change the Weather History Date:

Sunday, December 29, 2013

  Actual Average (KCRE) Record (KCRE)
Temperature  
Mean Temperature 59 °F -  
Max Temperature 71 °F 53 °F 74 °F (2015)
Min Temperature 46 °F 34 °F 20 °F (1952)
Degree Days  
Heating Degree Days 6    
Growing Degree Days 9 (Base 50)    
Moisture  
Dew Point 57 °F    
Average Humidity 86    
Maximum Humidity 98    
Minimum Humidity 66    
Precipitation  
Precipitation 0.56 in - - ()
Sea Level Pressure  
Sea Level Pressure 29.88 in    
Wind  
Wind Speed 7 mph (SSW)    
Max Wind Speed 23 mph    
Max Gust Speed 36 mph    
Visibility 8 miles    
Events Rain    
Averages and records for this station are not official NWS values.
T = Trace of Precipitation, MM = Missing Value Source: NWS Daily Summary

Daily Weather History Graph

Daily Weather History Graph

Search for Another Location

Airport or City:

Trip Planner

Search our weather history database for the weather conditions in past years. The results will help you decide how hot, cold, wet, or windy it might be!

Date:

Astronomy

Dec. 29, 2013 Rise Set
Actual Time 7:20 AM EST 5:13 PM EST
Civil Twilight 6:52 AM EST 5:41 PM EST
Nautical Twilight 6:21 AM EST 6:13 PM EST
Astronomical Twilight 5:50 AM EST 6:43 PM EST
Moon 4:05 AM EST (12/29) 2:47 PM EST (12/29)
Length of Visible Light 10h 49m
Length of Day
9h 53m
Waning Crescent, 11% of the Moon is Illuminated
Dec 29
Waning Crescent
Jan 1
New
Jan 7
First Quarter
Jan 15
Full
Jan 24
Last Quarter

Hourly Weather History & Observations

Time (EST) Temp. Dew Point Humidity Pressure Visibility Wind Dir Wind Speed Gust Speed Precip Events Conditions
12:15 AM 52.0 °F 43.7 °F 73% 30.09 in 10.0 mi ENE 4.6 mph - N/A   Light Drizzle
12:35 AM 53.2 °F 44.4 °F 72% 30.08 in 10.0 mi ENE 4.6 mph - N/A   Overcast
12:55 AM 53.8 °F 45.1 °F 73% 30.07 in 10.0 mi East 5.8 mph - N/A   Overcast
1:15 AM 54.5 °F 46.9 °F 76% 30.05 in 10.0 mi East 5.8 mph - N/A Rain Light Rain
1:35 AM 54.0 °F 48.4 °F 81% 30.04 in 10.0 mi ENE 3.5 mph - N/A   Light Drizzle
1:55 AM 53.6 °F 49.5 °F 86% 30.03 in 7.0 mi ENE 3.5 mph - N/A   Drizzle
2:15 AM 53.4 °F 51.1 °F 92% 30.03 in 5.0 mi Calm Calm - N/A   Drizzle
2:35 AM 54.7 °F 53.1 °F 94% 30.01 in 5.0 mi East 4.6 mph - 0.04 in Rain Light Rain
2:55 AM 55.4 °F 54.1 °F 96% 29.99 in 4.0 mi Calm Calm - 0.08 in Rain Light Rain
3:15 AM 57.0 °F 55.9 °F 96% 29.98 in 4.0 mi ESE 4.6 mph - 0.02 in Rain Rain
3:35 AM 57.2 °F 56.3 °F 97% 29.98 in 4.0 mi SE 5.8 mph - 0.06 in Rain Rain
3:55 AM 57.9 °F 57.0 °F 97% 29.96 in 4.0 mi SE 3.5 mph - 0.08 in Rain Light Rain
4:15 AM 60.6 °F 59.7 °F 97% 29.95 in 7.0 mi SE 4.6 mph - N/A Rain Rain
4:35 AM 62.1 °F 61.0 °F 96% 29.93 in 7.0 mi SSE 4.6 mph - 0.01 in Rain Light Rain
4:55 AM 62.4 °F 61.0 °F 95% 29.92 in 3.0 mi West 3.5 mph - 0.11 in Rain Light Rain
5:15 AM 64.2 °F 63.5 °F 98% 29.91 in 10.0 mi South 9.2 mph - 0.02 in Rain Light Rain
5:35 AM 65.7 °F 64.0 °F 94% 29.90 in 7.0 mi South 8.1 mph - 0.02 in Rain Rain
5:55 AM 66.4 °F 64.0 °F 92% 29.90 in 10.0 mi SSE 12.7 mph - 0.03 in   Overcast
6:15 AM 66.9 °F 63.9 °F 90% 29.89 in 7.0 mi SSE 12.7 mph 21.9 mph N/A   Overcast
6:35 AM 66.7 °F 63.5 °F 89% 29.88 in 7.0 mi SSE 12.7 mph 19.6 mph N/A   Drizzle
6:55 AM 66.6 °F 64.0 °F 92% 29.87 in 4.0 mi SSE 13.8 mph 21.9 mph 0.01 in Rain Rain
7:15 AM 66.4 °F 64.0 °F 92% 29.87 in 5.0 mi SSE 18.4 mph 25.3 mph N/A Rain Light Rain
7:35 AM 67.1 °F 63.9 °F 89% 29.86 in 7.0 mi SSE 17.3 mph 23.0 mph N/A Rain Light Rain
7:55 AM 66.7 °F 64.4 °F 92% 29.86 in 4.0 mi South 12.7 mph 18.4 mph 0.01 in Rain Light Rain
8:15 AM 67.1 °F 64.6 °F 92% 29.86 in 5.0 mi South 16.1 mph 26.5 mph N/A Rain Light Rain
8:35 AM 67.1 °F 64.4 °F 91% 29.85 in 5.0 mi South 13.8 mph 23.0 mph 0.01 in Rain Rain
8:55 AM 66.7 °F 64.2 °F 92% 29.85 in 5.0 mi SSE 16.1 mph 26.5 mph 0.02 in Rain Light Rain
9:15 AM 66.7 °F 64.0 °F 91% 29.84 in 4.0 mi SSE 17.3 mph 21.9 mph 0.01 in Rain Rain
9:35 AM 66.6 °F 63.9 °F 91% 29.82 in 3.0 mi SSE 23.0 mph 34.5 mph 0.04 in Rain Rain
9:55 AM 66.4 °F 64.0 °F 92% 29.83 in 3.0 mi South 21.9 mph 35.7 mph 0.07 in Rain Rain
10:15 AM 66.4 °F 64.4 °F 93% 29.82 in - SSE 19.6 mph - N/A   Unknown
10:35 AM 66.4 °F 64.4 °F 93% 29.82 in 4.0 mi South 18.4 mph 27.6 mph 0.03 in Rain Rain
10:55 AM 66.4 °F 64.4 °F 93% 29.82 in 2.5 mi South 18.4 mph 29.9 mph 0.10 in Rain Heavy Rain
11:15 AM 66.6 °F 64.6 °F 93% 29.81 in 7.0 mi South 16.1 mph 23.0 mph 0.01 in   Overcast
11:35 AM 68.0 °F 64.9 °F 90% 29.79 in 7.0 mi South 15.0 mph 21.9 mph 0.01 in   Mostly Cloudy
11:55 AM 68.5 °F 64.8 °F 88% 29.77 in 10.0 mi South 15.0 mph 26.5 mph 0.01 in   Scattered Clouds
12:15 PM 69.1 °F 65.3 °F 88% 29.77 in 10.0 mi South 11.5 mph - N/A   Mostly Cloudy
12:35 PM 69.8 °F 65.5 °F 86% 29.76 in 10.0 mi SSW 11.5 mph - N/A   Overcast
12:55 PM 70.2 °F 65.7 °F 86% 29.76 in 10.0 mi SSW 10.4 mph 18.4 mph N/A   Overcast
1:15 PM 70.0 °F 65.3 °F 85% 29.75 in 10.0 mi SSW 11.5 mph - N/A   Overcast
1:35 PM 70.2 °F 65.3 °F 85% 29.75 in 10.0 mi SW 12.7 mph 17.3 mph N/A   Overcast
1:55 PM 68.2 °F 65.7 °F 92% 29.76 in 10.0 mi SW 8.1 mph - 0.04 in Rain Light Rain
2:15 PM 69.3 °F 65.5 °F 88% 29.75 in 10.0 mi WSW 8.1 mph 18.4 mph N/A   Scattered Clouds
2:35 PM 69.6 °F 64.8 °F 84% 29.75 in 10.0 mi SW 9.2 mph - N/A   Clear
2:55 PM 71.4 °F 63.3 °F 76% 29.75 in 10.0 mi WSW 9.2 mph - N/A   Clear
3:15 PM 71.1 °F 61.3 °F 71% 29.76 in 10.0 mi WSW 4.6 mph - N/A   Clear
3:35 PM 70.7 °F 59.9 °F 69% 29.76 in 10.0 mi West 9.2 mph 18.4 mph N/A   Clear
3:55 PM 69.3 °F 57.6 °F 66% 29.77 in 10.0 mi WSW 5.8 mph 19.6 mph N/A   Clear
4:15 PM 68.0 °F 57.4 °F 69% 29.77 in 10.0 mi WSW 5.8 mph 20.7 mph N/A   Mostly Cloudy
4:35 PM 68.0 °F 56.8 °F 67% 29.79 in 10.0 mi SW 6.9 mph - N/A   Mostly Cloudy
4:55 PM 66.2 °F 57.0 °F 72% 29.80 in 10.0 mi West 6.9 mph - N/A   Clear
5:15 PM 64.4 °F 55.6 °F 73% 29.81 in 10.0 mi West 5.8 mph - N/A   Clear
5:35 PM 63.1 °F 54.1 °F 72% 29.82 in 10.0 mi West 4.6 mph - N/A   Clear
5:55 PM 61.7 °F 53.8 °F 75% 29.83 in 10.0 mi West 3.5 mph - N/A   Clear
6:15 PM 60.8 °F 53.2 °F 76% 29.83 in 10.0 mi West 4.6 mph - N/A   Clear
6:35 PM 59.7 °F 53.1 °F 79% 29.84 in 10.0 mi Calm Calm - N/A   Clear
6:55 PM 58.8 °F 52.7 °F 80% 29.86 in 10.0 mi West 3.5 mph - N/A   Clear
7:15 PM 58.5 °F 51.4 °F 77% 29.87 in 10.0 mi West 3.5 mph - N/A   Clear
7:35 PM 57.2 °F 51.4 °F 81% 29.88 in 10.0 mi West 3.5 mph - N/A   Clear
7:55 PM 56.7 °F 51.3 °F 82% 29.89 in 10.0 mi West 4.6 mph - N/A   Clear
8:15 PM 55.6 °F 50.7 °F 84% 29.90 in 10.0 mi West 3.5 mph - N/A   Clear
8:35 PM 55.0 °F 50.0 °F 83% 29.91 in 10.0 mi West 4.6 mph - N/A   Clear
8:55 PM 54.1 °F 49.5 °F 84% 29.92 in 10.0 mi West 3.5 mph - N/A   Clear
9:15 PM 53.2 °F 49.1 °F 86% 29.93 in 10.0 mi West 4.6 mph - N/A   Clear
9:35 PM 52.5 °F 48.7 °F 87% 29.93 in 10.0 mi Calm Calm - N/A   Clear
9:55 PM 51.8 °F 48.6 °F 89% 29.94 in 10.0 mi Calm Calm - N/A   Clear
10:15 PM 50.9 °F 48.2 °F 90% 29.94 in 10.0 mi Calm Calm - N/A   Clear
10:35 PM 50.2 °F 48.2 °F 93% 29.95 in 10.0 mi Calm Calm - N/A   Clear
10:55 PM 49.3 °F 47.7 °F 94% 29.95 in 10.0 mi Calm Calm - N/A   Clear
11:15 PM 48.2 °F 46.8 °F 95% 29.95 in 10.0 mi Calm Calm - N/A   Clear
11:35 PM 47.5 °F 46.4 °F 96% 29.95 in 10.0 mi Calm Calm - N/A   Clear
11:55 PM 46.4 °F 45.5 °F 97% 29.95 in 5.0 mi Calm Calm - N/A   Clear